STARLINK-32936, 63147

Orbit data source: Space-Track

STARLINK-32936, 63147 is a payload satellite owned by SpaceX/Seattle (US) in LEO that was launched on Mon, 03 Mar 2025 UTC via an FALCON 9 launch vehicle from the Air Force Eastern Test Range (AFETR). Payload-class satellites include a variety of spacecraft equipped with specific instruments for various scientific and technological missions. These include communications satellites like Starlink; space stations such as the ISS; scientific satellites like the Hubble; Earth observation satellites from companies like Planet Labs, Umbra, and HawkEye 360; GPS; miniature CubeSats for education and research; and military/defense satellites.

Loading next visibility...
Identifier
63147, 2025-043R
Orbit
LEO
Country
Flag of USUS
Related business
Manufacturer
SpaceX/Seattle
Mission
Operational Commercial Communications
Bus & Motor
STARLINK V2M, Unknown motor
Mass
730 kg wet, ~700 kg dry
Launch date (UTC)
2025-03-03 (2 years ago)
Launch vehicle
FALCON 9
Launch site
Air Force Eastern Test Range (AFETR)
Object type
Payload
Rocket body
Debris
Shape & HBR
Box + 2 Pan, 17.7 m
Radar Cross Section
33.884 m², Large (>1 m²)

Expand to show TLE details & history
Last TLE update: 10 hours ago

TLE from 10 hours ago
0 STARLINK-32936
1 63147U 25043R   26255.89388487  .00007502  00000-0  28177-3 0  9992
2 63147  43.0019  45.8513 0001732 270.0855  89.9798 15.27590894 85919
Epoch: 2026-09-12T21:27Z
TLE epoch observation values (Epoch: 2026-09-12T21:27:11.652Z)
Latitude
-0.00005°
Longitude
92.15635°
Altitude
482.792 km
Speed
7.626 km/s
True Right ascension
03h 03m 24s
True Declination
0° 00' 00"
Sunlit
Object was in full shadow at epoch
Visualization orbit readout
Latitude
Unknown
Longitude
Unknown
Altitude
Unknown
Speed
Unknown
Apparent Right ascension
Unknown
Apparent Declination
Unknown
Sunlit
N/A
Visualization observer readout
Local Sidereal Time
23:49:29
Azimuth
Unknown
Elevation
Unknown
Doppler factor
Unknown
Orbital elements
Apogee altitude
486.15 km
Perigee altitude
483.773 km
Semi-major axis
6,863.098 km
Eccentricity
0.00017
Inclination
43.0019°
RAAN
45.8513°
Arg. of periapsis
270.0855°
True anomaly
89.99965°
Mean anomaly
89.9798°
Eccentric anomaly
89.98972°
Mean motion
3.81736 °/min
Orbital period
94.31 mins
BSTAR
0.00028177
Loading maneuver chart data...
Computing Atmospheric mass density...
Loading historical data...
Loading historical data...
Loading historical data...
Loading historical data...
Loading historical data...
Loading historical data...
Loading historical data...

Documentation

Showing up to 5 results
|